Regional Weather Roundup
Issued by NWS Austin/San Antonio, TX

Home | Current Version | Previous Version | Text Only | Print | Product List | Glossary On
Versions: 1 2 3 4 5 6 7 8 9 10 11 12 13 14 15 16 17 18 19 20 21 22 23 24 25 26 27 28 29 30 31 32 33 34 35 36 37 38 39 40 41 42 43 44 45 46 47 48 49 50
000
ASUS44 KEWX 280801
RWREWX
SOUTH TEXAS REGIONAL WEATHER ROUNDUP
NATIONAL WEATHER SERVICE AUSTIN/SAN ANTONIO TX
300 AM CDT FRI APR 28 2017

NOTE: "FAIR" INDICATED FEW OR NO CLOUDS BELOW 12,000 FEET WITH NO
SIGNIFICANT WEATHER AND/OR OBSTRUCTIONS TO VISIBILITY.

* - THESE STATIONS ARE NOT NWS OR FAA STATIONS...AND ARE NOT SUBJECT
    TO NWS AND FAA QUALITY CONTROL.

TXZ171-172-183>190-280900-
TEXAS HILL COUNTRY AND EDWARDS PLATEAU

CITY           SKY/WX    TMP DP  RH WIND       PRES   REMARKS
JUNCTION       CLOUDY    71  64  78 S12       29.58F
*LLANO         PTCLDY    70  63  78 SE6       29.62S
BURNET         MOCLDY    66  61  84 S12G21    29.61F
*HORSESHOE BAY CLOUDY    68  63  84 S10G18    29.60F
*KERRVILLE     CLOUDY    66  64  91 S13       29.63F
*FREDERICKSBRG CLOUDY    66  61  82 S13       29.63S
*ROCKSPRINGS   CLOUDY    66  64  94 S16G22    29.63S FOG
*BOERNE STAGE  CLOUDY    66  63  88 S8        29.64F
*CASTROVILLE   CLOUDY    71  64  79 SE9       29.62F
HONDO          CLOUDY    71  66  84 SE9       29.61F
*UVALDE        CLOUDY    69  66  89 SE9       29.60F
DEL RIO        CLEAR     73  67  81 SE12      29.53S
LAUGHLIN AFB   MOCLDY    71  68  88 SE15      29.53F
CARRIZO SPRGS  CLOUDY    70  68  94 SE6       29.55F
*EAGLE PASS    NOT AVBL
$$

TXZ173-191>194-202-209-217>225-228-280900-
CENTRAL AND SOUTH CENTRAL TEXAS

CITY           SKY/WX    TMP DP  RH WIND       PRES   REMARKS
GEORGETOWN     CLOUDY    72  61  68 S15G25    29.59F
AUSTIN/BERGSTM CLOUDY    73  66  78 S13       29.60F
AUSTIN/MABRY   CLOUDY    72  64  76 VRB7      29.61F
*AUSTIN/EXEC   CLOUDY    72  66  83 S13       29.61F
*LAGO VISTA    CLOUDY    69  64  83 S12G21    29.62F
SAN MARCOS     CLOUDY    72  64  78 S13       29.62F
NEW BRAUNFELS  CLOUDY    72  66  81 S14       29.60F
RANDOLPH AFB   CLOUDY    71  68  90 S7        29.61F
PT SAN ANTONIO CLOUDY    71  66  83 SE7       29.59F
SAN ANTONIO    CLOUDY    71  65  81 S10       29.62F
STINSON FIELD  CLOUDY    72  66  81 SE5       29.59F
*LA GRANGE     CLOUDY    72  69  92 S5        29.60F FOG
*GIDDINGS      CLOUDY    70  66  86 S10       29.62F
*GONZALES      CLOUDY    73  70  92 S7        29.60F
$$

TXZ163>164-176>182-195>201-210>213-226-227-235-280900-
SOUTHEAST TEXAS

CITY           SKY/WX    TMP DP  RH WIND       PRES   REMARKS
COLLEGE STN    CLOUDY    71  66  84 S12       29.61F
*BRYAN         CLOUDY    71  65  83 SE10G17   29.63F
*CALDWELL      NOT AVBL
*CROCKETT      CLOUDY    68  63  83 SE3       29.67F
*BRENHAM       CLOUDY    71  67  86 SE6       29.62F
HUNTSVILLE     CLOUDY    71  64  78 S6        29.63S
CONROE         CLOUDY    69  65  86 SE6       29.63F
HOUSTON BUSH   CLOUDY    75  69  81 S9        29.63F
HOUSTON HOBBY  CLOUDY    75  71  87 S9        29.62F
*HOUSTON SW AP CLOUDY    73  70  89 SE6       29.64F
PEARLAND       CLOUDY    77  72  84 SE8       29.64F
HOUSTON HOOKS  CLOUDY    74  69  85 S5        29.63F
ELLINGTON FLD  CLOUDY    75  70  83 SE7       29.64F
SUGAR LAND     CLOUDY    75  72  90 S9        29.62F
*HOUSTON EXEC  CLOUDY    73  70  88 SE8       29.64F FOG
*CLEVELAND MUN CLOUDY    71  67  89 SE5       29.65F
*WHARTON       MOCLDY    74  69  85 SE7       29.63F
*COLUMBUS      CLOUDY    72  68  88 SE3       29.62F
*EAGLE LAKE    CLOUDY    73  71  93 SE6       29.62F
$$

TXZ214>216-236>238-280900-
THE UPPER TEXAS COAST

CITY           SKY/WX    TMP DP  RH WIND       PRES   REMARKS
*ORANGE        CLOUDY    76  74  92 S8        29.68F
PORT ARTHUR    CLOUDY    77  72  84 SE14G21   29.65F
GALVESTON      CLOUDY    77  75  93 SE12      29.64F
ANGLETON       CLOUDY    78  74  87 SE9       29.64F
*BAY CITY      CLOUDY    76  73  91 S5        29.63F FOG
PALACIOS       CLOUDY    76  72  87 S8        29.62F
$$

TXZ229>234-239>247-280900-
TEXAS COASTAL BEND AND RIO GRANDE PLAINS

CITY           SKY/WX    TMP DP  RH WIND       PRES   REMARKS
VICTORIA       CLOUDY    75  70  84 SE9       29.61F
*BEEVILLE      CLOUDY    75  75 100 SE7       29.60F
ROCKPORT       CLOUDY    77  72  84 SE7       29.59F
*PORT ARANSAS  CLOUDY    75  73  92 SE7       29.60S FOG
*PORT LAVACA   CLOUDY    74  72  92 CALM      29.62F
*INGLESIDE     CLOUDY    77  73  88 SE3       29.59F
CORPUS CHRISTI MOCLDY    75  73  93 SE8       29.59F
CORPUS NAS     PTCLDY    76  74  93 SE9       29.58F FOG
*ROBSTOWN      CLOUDY    77  72  86 SE8       29.59F
ALICE          CLOUDY    75  71  87 SE10      29.57F
KINGSVILLE NAS MOCLDY    75  74  96 SE7       29.58F
COTULLA        CLOUDY    73  67  81 SE10      29.57F
*FAITH RANCH   MOCLDY    73  70  88 SE12      29.54F
LAREDO         CLOUDY    74  70  87 SE10      29.56F
$$

TXZ248>255-280900-
DEEP SOUTH TEXAS

CITY           SKY/WX    TMP DP  RH WIND       PRES   REMARKS
BROWNSVILLE    CLOUDY    77  72  84 SE14      29.59F
PORT ISABEL    CLOUDY    76  73  91 SE15      29.58F
*SOUTH PADRE   NOT AVBL
HARLINGEN      PTCLDY    73  73 100 SE10      29.57F FOG
*HEBBRONVILLE  CLOUDY    72  70  93 S10G17    29.59F FOG
MCALLEN        CLOUDY    77  72  84 SE13G21   29.59S
*WESLACO       PTCLDY    73  71  91 S6        29.58S
FALFURRIAS     CLEAR     73  71  91 SE5       29.57F
EDINBURG       CLOUDY    73  70  88 S6        29.59S FOG
*ZAPATA        CLOUDY    75  69  80 SE7       29.56F
$$

TXZ213>215-236>238-242>244-246-247-251-254-255-280900-
CMAN STATIONS

STATION/POSITION TIME  TEMP    WIND        PRES    WAVE
                       AIR SEA DIR/SP/G            HT/PER
                 (UTC) (F)     (DEG/KT/KT) (MB)    (FT/S)
SABINE PASS      0730   75 76  150/ 10/ 13 1006.0
SEA RIM ST PARK  0700   75     140/  7/  9 1005.4
NORTH JETTY/GLS  0730      75  130/ 11/ 13 1003.3
EAGLE POINT      0730   74 75  140/  9/ 11 1003.5
MORGANS POINT    0730   74 75  120/  6/  9 1003.5
MISSION/ARANSAS  0700   77                 1003.0
PORT O`CONNOR    0730   76     160/  9/ 14 1002.7
PORT ARANSAS     0700   76 77  130/ 11/ 12 1002.4
MALAQUITE BEACH  0724   76 78  130/ 13/ 16 1002.3
BAFFIN BAY       0724   76 78  100/ 12/ 15 1001.8
PORT ISABEL      0724   77 81  150/ 16/ 19 1002.2
$$



USA.gov is the U.S. government's official web portal to all federal, state and local government web resources and services.